[Date Prev][Date Next][Thread Prev][Thread Next] - [Date Index][Thread Index][Author Index]

2 Line ISS Keps 7-9



ISS
1 25544U 98067A   05190.42268676  .00010626  00000-0  86024-4 0  8703
2 25544 051.6439 146.9692 0003740 098.7218 355.8702 15.71431861379181
----
Via the sarex mailing list at AMSAT.ORG courtesy of AMSAT-NA.
To unsubscribe, send "unsubscribe sarex" to Majordomo@amsat.org



AMSAT Top AMSAT Home